Location: Newark
(12.4436°N, 0.6167°W)
Time: 12:18:58
(UTC+00:00)

Vanguard 1 - Pass Details

Date: 15 December 2019
Orbit: 651 x 3833 km, 34.2° (Epoch: 25 January)

Event Time Altitude Azimuth Distance (km) Brightness Sun altitude
Rises 02:07:11 0° 251° (WSW) 6,349 - -57.4°
Reaches altitude 10° 02:10:52 10° 254° (WSW) 5,675 - -56.5°
Maximum altitude 02:30:05 62° 332° (NNW) 4,014 - -52.2°
Exits shadow 02:35:15 55° 12° (NNE) 4,282 12.9 -51.0°
Drops below altitude 10° 02:53:20 10° 51° (NE) 6,608 14.5 -46.9°
Sets 02:58:09 0° 55° (NE) 7,381 14.9 -45.8°
